This demonstration page uses our WeatherBlox Daily Observations layout. Learn more.

Left ArrowRight Arrow

Hourly Observations for May 20, 2017

Temp ( °F °C ) Dew Point ( °F °C ) Humidity (%) Winds ( mph kmh ) Pressure ( in mb ) Visibility ( mi km ) Precip ( " mm )
12:06 am 00:06 Mostly Cloudy with Light Rain 50 10 46 8 88 88 NE 10 17 29.93 1014 10 16 0.00 0.00
12:16 am 00:16 Partly Cloudy with Rain 50 10 46 8 88 88 NE 8 13 29.93 1013 7 11 0.00 0.00
12:37 am 00:37 Partly Cloudy 50 10 46 8 88 88 ENE 8 13 29.93 1014 10 16 0.00 0.00
12:41 am 00:41 Partly Cloudy with Light Rain 50 10 46 8 88 88 ENE 8 13 29.92 1013 10 16 0.00 0.00
12:51 am 00:51 Mostly Cloudy with Heavy Rain 50 10 46 8 88 88 NE 10 17 29.91 1013 5 8 0.00 0.00
12:56 am 00:56 Mostly Cloudy with Light Rain 49 9.5 47 8.4 93 93 NE 10 17 29.91 1013 4 6 0.04 1.02
1:06 am 01:06 Partly Cloudy with Light Rain 50 10 46 8 88 88 NE 12 19 29.90 1013 7 11 0.00 0.00
1:26 am 01:26 Mostly Cloudy with Light Rain 50 10 48 9 94 94 NE 9 15 29.89 1012 10 16 0.00 0.00
1:36 am 01:36 Cloudy with Light Rain 50 10 48 9 94 94 NE 9 15 29.89 1012 10 16 0.00 0.00
1:56 am 01:56 Partly Cloudy with Light Rain 49 9.7 47 8.6 93 93 ENE 8 13 29.88 1012 6 10 0.06 1.52
2:22 am 02:22 Mostly Cloudy 50 10 48 9 94 94 ENE 13 20 29.87 1011 10 16 0.00 0.00
2:39 am 02:39 Mostly Cloudy with Light Rain 50 10 48 9 94 94 ENE 14 22 29.85 1011 10 16 0.00 0.00
2:48 am 02:48 Mostly Cloudy 50 10 48 9 94 94 ENE 13 20 29.84 1011 10 16 0.00 0.00
2:56 am 02:56 Cloudy 50 9.9 48 8.7 92 92 ENE 9 15 29.85 1011 10 16 0.00 0.03
3:26 am 03:26 Cloudy 50 10 48 9 94 94 NE 9 15 29.83 1010 10 16 0.00 0.00
3:39 am 03:39 Cloudy with Light Rain 50 10 48 9 94 94 NE 6 9 29.83 1010 10 16 0.00 0.00
3:50 am 03:50 Cloudy with Heavy Rain 50 10 48 9 94 94 NE 8 13 29.83 1010 3 5 0.00 0.00
3:51 am 03:51 Cloudy with Heavy Rain 50 10 48 9 94 94 NE 9 15 29.81 1010 3 4 0.00 0.00
3:56 am 03:56 Cloudy with Light Rain 50 9.8 48 8.9 94 94 NE 8 13 29.81 1010 3 4 0.03 0.76
4:02 am 04:02 Mostly Cloudy with Mist and Fog 50 10 48 9 94 94 ENE 8 13 29.81 1010 3 5 0.00 0.00
4:03 am 04:03 Mostly Cloudy with Mist and Fog 50 10 48 9 94 94 NE 8 13 29.81 1010 3 5 0.00 0.00
4:12 am 04:12 Mostly Cloudy with Mist and Fog 50 10 48 9 94 94 NNE 6 9 29.81 1010 3 4 0.00 0.00
4:14 am 04:14 Mostly Cloudy with Mist and Fog 50 10 48 9 94 94 NE 7 11 29.81 1010 3 5 0.00 0.00
4:24 am 04:24 Mostly Cloudy with Light Rain 50 10 48 9 94 94 NE 8 13 29.81 1010 4 6 0.00 0.00
4:32 am 04:32 Mostly Cloudy with Rain 50 10 48 9 94 94 NNE 7 11 29.81 1010 3 5 0.00 0.00
4:39 am 04:39 Cloudy with Mist and Fog 50 10 48 9 94 94 N 5 7 29.81 1010 4 6 0.00 0.00
4:49 am 04:49 Partly Cloudy with Mist and Fog 50 10 48 9 94 94 N 6 9 29.80 1009 5 8 0.00 0.00
4:56 am 04:56 Partly Cloudy with Mist and Fog 50 9.8 48 9 95 95 N 7 11 29.80 1009 4 6 0.04 1.02
4:57 am 04:57 Mostly Clear with Mist and Fog 50 10 48 9 94 94 N 7 11 29.80 1009 4 6 0.00 0.00
5:17 am 05:17 Clear with Light Rain 50 10 48 9 94 94 NNE 9 15 29.80 1009 3 5 0.00 0.00
5:18 am 05:18 Mostly Clear with Light Rain 50 10 48 9 94 94 NNE 9 15 29.80 1009 4 6 0.00 0.00
5:29 am 05:29 Partly Cloudy with Mist and Fog 50 10 48 9 94 94 NNE 7 11 29.78 1009 3 5 0.00 0.00
5:39 am 05:39 Mostly Cloudy with Mist and Fog 50 10 48 9 94 94 NNE 8 13 29.80 1009 3 5 0.00 0.00
5:49 am 05:49 Partly Cloudy with Mist and Fog 50 10 48 9 94 94 NE 9 15 29.80 1009 3 5 0.00 0.00
5:52 am 05:52 Partly Cloudy with Light Rain 50 10 48 9 94 94 NE 9 15 29.78 1009 3 5 0.00 0.00
5:56 am 05:56 Partly Cloudy with Light Rain 50 9.8 49 9.2 96 96 NE 8 13 29.78 1009 3 5 0.01 0.25
6:00 am 06:00 Mostly Clear with Mist and Fog 50 10 48 9 94 94 NE 7 11 29.80 1009 3 5 0.00 0.00
6:10 am 06:10 Sunny with Mist and Fog 50 10 48 9 94 94 NE 9 15 29.78 1008 3 4 0.00 0.00
6:13 am 06:13 Partly Cloudy with Light Rain 50 10 48 9 94 94 NE 9 15 29.78 1008 3 5 0.00 0.00
6:23 am 06:23 Mostly Cloudy with Light Rain 50 10 48 9 94 94 NE 10 17 29.78 1008 4 6 0.00 0.00
6:43 am 06:43 Cloudy with Light Rain 50 10 48 9 94 94 NE 10 17 29.78 1008 6 10 0.00 0.00
6:56 am 06:56 Mostly Cloudy with Light Rain 50 10.1 49 9.3 95 95 NE 8 13 29.76 1008 4 6 0.05 1.27
7:05 am 07:05 Mostly Cloudy with Light Rain 50 10 48 9 94 94 ENE 9 15 29.77 1008 7 11 0.00 0.00
7:25 am 07:25 Cloudy with Light Rain 50 10 50 10 100 100 ENE 10 17 29.74 1007 5 8 0.00 0.00
7:29 am 07:29 Cloudy 50 10 50 10 100 100 ENE 10 17 29.74 1007 5 8 0.00 0.00
7:36 am 07:36 Cloudy with Light Rain 50 10 50 10 100 100 ENE 10 17 29.75 1007 5 8 0.00 0.00
7:56 am 07:56 Mostly Cloudy with Light Rain 51 10.6 50 9.8 95 95 ENE 10 17 29.75 1007 3 5 0.02 0.51
8:02 am 08:02 Mostly Cloudy with Light Rain 52 11 50 10 94 94 E 7 11 29.75 1007 2 3 0.00 0.00
8:22 am 08:22 Cloudy with Light Rain 52 11 50 10 94 94 ENE 7 11 29.74 1007 7 11 0.00 0.00
8:32 am 08:32 Cloudy with Light Rain 52 11 52 11 100 100 ENE 7 11 29.74 1007 2 3 0.00 0.00
8:42 am 08:42 Cloudy with Light Rain 54 12 52 11 94 94 E 9 15 29.72 1007 2 4 0.00 0.00
8:52 am 08:52 Cloudy with Light Rain 54 12 52 11 94 94 E 6 9 29.72 1007 4 6 0.00 0.00
8:56 am 08:56 Cloudy with Light Rain 53 11.6 52 11 96 96 ENE 7 11 29.73 1007 5 8 0.01 0.25
8:57 am 08:57 Cloudy 54 12 52 11 94 94 ENE 8 13 29.73 1007 6 10 0.00 0.00
9:22 am 09:22 Cloudy with Light Rain 54 12 52 11 94 94 WNW 6 9 29.73 1007 7 11 0.00 0.00
9:32 am 09:32 Cloudy with Heavy Rain 54 12 52 11 94 94 WNW 9 15 29.73 1007 3 4 0.00 0.00
9:42 am 09:42 Cloudy with Rain 54 12 54 12 100 100 WNW 7 11 29.73 1007 5 8 0.00 0.00
9:52 am 09:52 Cloudy with Light Rain 55 13 54 12 94 94 NW 6 9 29.73 1007 6 10 0.00 0.00
9:56 am 09:56 Cloudy with Light Rain 55 12.6 54 12 96 96 NNW 5 7 29.72 1007 5 8 0.05 1.27
9:57 am 09:57 Cloudy with Mist and Fog 55 13 54 12 94 94 NNW 5 7 29.72 1007 6 10 0.00 0.00
10:12 am 10:12 Cloudy with Light Rain 55 13 54 12 94 94 NW 6 9 29.72 1007 6 10 0.00 0.00
10:22 am 10:22 Cloudy with Mist and Fog 55 13 54 12 94 94 WNW 7 11 29.72 1007 4 6 0.00 0.00
10:40 am 10:40 Cloudy with Light Rain 55 13 54 12 94 94 NNW 5 7 29.72 1007 3 5 0.00 0.00
10:50 am 10:50 Cloudy with Light Rain 55 13 54 12 94 94 NW 7 11 29.71 1006 5 8 0.00 0.00
10:54 am 10:54 Cloudy with Mist and Fog 55 13 54 12 94 94 NW 6 9 29.71 1006 4 6 0.00 0.00
10:56 am 10:56 Cloudy with Mist and Fog 56 13.1 54 12.3 95 95 NNW 5 7 29.71 1006 4 6 0.00 0.03
11:04 am 11:04 Cloudy with Light Rain 55 13 54 12 94 94 NW 8 13 29.72 1007 5 8 0.00 0.00
11:13 am 11:13 Cloudy with Mist and Fog 55 13 54 12 94 94 N 7 11 29.71 1006 3 5 0.00 0.00
11:25 am 11:25 Cloudy with Light Rain 55 13 54 12 94 94 WNW 7 11 29.73 1007 5 8 0.00 0.00
11:35 am 11:35 Cloudy with Mist and Fog 55 13 54 12 94 94 W 7 11 29.75 1007 3 5 0.00 0.00
11:46 am 11:46 Cloudy with Light Rain 55 13 54 12 94 94 W 9 15 29.75 1008 4 6 0.00 0.00
11:56 am 11:56 Cloudy with Drizzle 55 13 54 12.2 95 95 WSW 8 13 29.75 1008 4 6 0.02 0.51
12:06 pm 12:06 Cloudy with Mist and Fog 55 13 54 12 94 94 WSW 10 17 29.75 1008 4 6 0.00 0.00
12:26 pm 12:26 Cloudy 55 13 54 12 94 94 W 10 17 29.75 1008 9 14 0.00 0.00
12:56 pm 12:56 Cloudy 56 13.6 53 11.6 88 88 WSW 8 13 29.76 1008 10 16 0.00 0.03
1:49 pm 13:49 Mostly Cloudy with Drizzle 57 14 52 11 82 82 SW 8 13 29.78 1009 3 5 0.00 0.00
1:56 pm 13:56 Mostly Cloudy with Light Rain 56 13.6 53 11.5 87 87 SW 10 17 29.78 1009 5 8 0.00 0.03
2:01 pm 14:01 Mostly Cloudy with Light Rain 57 14 52 11 82 82 SW 8 13 29.78 1009 5 8 0.00 0.00
2:11 pm 14:11 Mostly Cloudy 57 14 54 12 88 88 SW 13 20 29.79 1009 4 6 0.00 0.00
2:31 pm 14:31 Cloudy 57 14 52 11 82 82 WSW 13 20 29.79 1009 5 8 0.00 0.00
2:38 pm 14:38 Cloudy with Light Rain 57 14 52 11 82 82 W 16 26 29.80 1009 5 8 0.00 0.00
2:48 pm 14:48 Cloudy with Light Rain 55 13 52 11 88 88 WSW 13 20 29.80 1009 5 8 0.00 0.00
2:55 pm 14:55 Mostly Cloudy 55 13 52 11 88 88 WSW 15 24 29.81 1010 7 11 0.00 0.00
2:56 pm 14:56 Mostly Cloudy 55 12.6 52 11.3 92 92 WSW 14 22 29.81 1010 7 11 0.00 0.03
3:06 pm 15:06 Mostly Cloudy 55 13 52 11 88 88 WSW 10 17 29.81 1010 9 14 0.00 0.00
3:16 pm 15:16 Cloudy 55 13 52 11 88 88 WSW 10 17 29.80 1009 10 16 0.00 0.00
3:32 pm 15:32 Mostly Cloudy with Light Rain 55 13 50 10 82 82 WSW 13 20 29.81 1010 10 16 0.00 0.00
3:47 pm 15:47 Mostly Cloudy 54 12 50 10 88 88 WSW 10 17 29.81 1010 10 16 0.00 0.00
3:56 pm 15:56 Mostly Cloudy with Light Rain 54 12.2 50 9.9 86 86 WSW 12 19 29.81 1010 10 16 0.00 0.03
4:02 pm 16:02 Mostly Cloudy 54 12 50 10 88 88 WSW 10 17 29.81 1010 10 16 0.00 0.00
4:17 pm 16:17 Mostly Cloudy with Light Rain 55 13 50 10 82 82 WSW 10 17 29.81 1010 10 16 0.00 0.00
4:26 pm 16:26 Cloudy 54 12 48 9 82 82 WSW 8 13 29.83 1010 10 16 0.00 0.00
4:56 pm 16:56 Cloudy 54 12.1 48 8.9 81 81 WSW 13 20 29.83 1010 10 16 0.00 0.03
4:59 pm 16:59 Cloudy with Light Rain 54 12 48 9 82 82 WSW 13 20 29.83 1010 10 16 0.00 0.00
5:08 pm 17:08 Cloudy 54 12 46 8 77 77 WSW 8 13 29.83 1010 10 16 0.00 0.00
5:56 pm 17:56 Mostly Cloudy 53 11.7 46 7.6 76 76 WSW 9 15 29.85 1011 10 16 0.00 0.03
6:13 pm 18:13 Cloudy with Drizzle 54 12 45 7 72 72 WSW 14 22 29.85 1011 10 16 0.00 0.00
6:22 pm 18:22 Mostly Cloudy 52 11 45 7 77 77 WSW 12 19 29.86 1011 10 16 0.00 0.00
6:56 pm 18:56 Cloudy 52 11.1 46 7.6 79 79 SW 9 15 29.85 1011 10 16 0.00 0.03
7:56 pm 19:56 Cloudy 51 10.7 45 7.2 79 79 W 10 17 29.85 1011 10 16 0.00 0.00

Powered by AerisWeather